Tracking 19709 objects as of 18-Jun-2019
HD Live streaming from Space Station
objects crossing your sky now

RADUGA 4

Track RADUGA 4 now!
RADUGA 4 is classified as:


NORAD ID: 10987
Int'l Code: 1978-073A
Perigee: 35,763.9 km
Apogee: 35,859.4 km
Inclination: 10.9 °
Period: 1,437.0 minutes
Semi major axis: 42182 km
RCS: 1 m2 (large)
Launch date: July 18, 1978
Source: Commonwealth of Independent States (former USSR) (CIS)
Launch site: TYURATAM MISSILE AND SPACE COMPLEX (TTMTR)
aabbcc
Your satellite tracking list
Your tracking list is empty




NASA's NSSDC Master Catalog

Two Line Element Set (TLE):
1 10987U 78073A   19168.90015484 -.00000264 +00000-0 +00000-0 0  9999
2 10987 010.8772 310.2915 0011317 335.2875 039.3984 01.00208038093975
Source of the keplerian elements: AFSPC